Time,TemperatureF,DewpointF,PressureIn,WindDirection,WindDirectionDegrees,WindSpeedMPH,WindSpeedGustMPH,Humidity,HourlyPrecipIn,Conditions,Clouds,dailyrainin,SolarRadiationWatts/m^2,SoftwareType,DateUTC
2013-05-03 21:06:00,60.4,40.6,30.29,ESE,122,1.0,1.0,48,0.00,,,0.00,0,Wunderground v.1.15,2013-05-04 01:06:00,
2013-05-03 21:08:00,60.2,40.4,30.29,ESE,121,1.0,1.0,48,0.00,,,0.00,0,Wunderground v.1.15,2013-05-04 01:08:00,
2013-05-03 21:10:00,60.1,40.3,30.29,SSE,150,0.0,1.0,48,0.00,,,0.00,0,Wunderground v.1.15,2013-05-04 01:10:00,
2013-05-03 21:12:00,59.9,40.7,30.30,SE,146,0.0,1.0,49,0.00,,,0.00,0,Wunderground v.1.15,2013-05-04 01:12:00,
2013-05-03 21:18:00,59.4,40.2,30.30,ESE,107,0.0,1.0,49,0.00,,,0.00,0,Wunderground v.1.15,2013-05-04 01:18:00,
2013-05-03 21:24:00,59.5,40.3,30.30,SE,130,0.0,1.0,49,0.00,,,0.00,0,Wunderground v.1.15,2013-05-04 01:24:00,
2013-05-03 21:30:00,59.4,40.2,30.30,ESE,119,0.0,0.0,49,0.00,,,0.00,0,Wunderground v.1.15,2013-05-04 01:30:00,
2013-05-03 21:36:00,59.2,40.0,30.30,ESE,102,1.0,9.0,49,0.00,,,0.00,0,Wunderground v.1.15,2013-05-04 01:36:00,
2013-05-03 21:42:00,58.9,40.3,30.30,East,95,0.0,9.0,50,0.00,,,0.00,0,Wunderground v.1.15,2013-05-04 01:42:00,
2013-05-03 21:48:00,58.4,40.3,30.30,SE,139,0.0,9.0,51,0.00,,,0.00,0,Wunderground v.1.15,2013-05-04 01:48:00,
2013-05-03 21:54:00,58.2,40.6,30.31,SE,139,0.0,9.0,52,0.00,,,0.00,0,Wunderground v.1.15,2013-05-04 01:54:00,
2013-05-03 22:00:00,58.1,40.6,30.31,SSE,154,0.0,9.0,52,0.00,,,0.00,0,Wunderground v.1.15,2013-05-04 02:00:00,
2013-05-03 22:06:00,58.3,40.7,30.31,ESE,115,0.0,9.0,52,0.00,,,0.00,0,Wunderground v.1.15,2013-05-04 02:06:00,
2013-05-03 22:12:00,58.0,41.0,30.31,SSE,154,0.0,9.0,53,0.00,,,0.00,0,Wunderground v.1.15,2013-05-04 02:12:00,
2013-05-03 22:18:00,58.0,41.0,30.31,SE,134,0.0,9.0,53,0.00,,,0.00,0,Wunderground v.1.15,2013-05-04 02:18:00,
2013-05-03 22:24:00,57.8,40.8,30.31,SSE,153,0.0,9.0,53,0.00,,,0.00,0,Wunderground v.1.15,2013-05-04 02:24:00,
2013-05-03 22:30:00,57.6,41.1,30.31,ESE,111,0.0,9.0,54,0.00,,,0.00,0,Wunderground v.1.15,2013-05-04 02:30:00,
2013-05-03 22:36:00,57.2,40.7,30.30,SE,135,0.0,9.0,54,0.00,,,0.00,0,Wunderground v.1.15,2013-05-04 02:36:00,
2013-05-03 22:42:00,56.9,40.9,30.31,ENE,61,0.0,9.0,55,0.00,,,0.00,0,Wunderground v.1.15,2013-05-04 02:42:00,
2013-05-03 22:48:00,57.1,41.1,30.30,SSE,155,0.0,9.0,55,0.00,,,0.00,0,Wunderground v.1.15,2013-05-04 02:48:00,
2013-05-03 22:54:00,56.9,40.9,30.30,SSE,148,1.0,9.0,55,0.00,,,0.00,0,Wunderground v.1.15,2013-05-04 02:54:00,
2013-05-03 23:00:00,56.5,41.0,30.30,SE,146,0.0,9.0,56,0.00,,,0.00,0,Wunderground v.1.15,2013-05-04 03:00:00,
2013-05-03 23:06:00,55.9,40.9,30.30,SE,143,1.0,9.0,57,0.00,,,0.00,0,Wunderground v.1.15,2013-05-04 03:06:00,
2013-05-03 23:12:00,55.9,40.9,30.30,SE,136,1.0,9.0,57,0.00,,,0.00,0,Wunderground v.1.15,2013-05-04 03:12:00,
2013-05-03 23:18:00,56.0,41.0,30.30,SSE,147,1.0,9.0,57,0.00,,,0.00,0,Wunderground v.1.15,2013-05-04 03:18:00,
2013-05-03 23:24:00,55.8,41.2,30.30,SE,137,1.0,9.0,58,0.00,,,0.00,0,Wunderground v.1.15,2013-05-04 03:24:00,
2013-05-03 23:30:00,56.3,41.3,30.30,SE,136,2.0,9.0,57,0.00,,,0.00,0,Wunderground v.1.15,2013-05-04 03:30:00,